Simultaneous Nadir Overpasses (SNOs) Predictions

Prediction of SNOs between GOES-18 and NOAA-21 Satellite Orbit:

Table of predicted SNOs for the next 14.0 days since TLE Epoch: 8/17/2024
Index Date Time (GOES-18) GOES-18 Lat,Lon NOAA-21 Lat,Lon Distance(km) Time Diff (sec)
1 08/17/2024 10:52:40 -0.03,-137.01 0.95,-141.37 497.24 80
2 08/18/2024 10:31:16 -0.03,-137.00 -0.08,-136.84 18.99 80
3 08/20/2024 22:34:26 0.03,-136.98 -0.08,-137.60 70.67 80
4 08/21/2024 22:18:21 0.03,-136.97 0.91,-133.06 445.47 80
5 08/23/2024 10:40:08 -0.03,-136.97 0.26,-138.33 154.87 80
6 08/24/2024 10:18:43 -0.03,-136.96 -0.74,-133.79 360.78 80
7 08/25/2024 22:40:38 0.04,-136.92 -0.44,-139.09 246.01 80
8 08/26/2024 22:24:33 0.04,-136.91 0.57,-134.55 269.19 80
9 08/28/2024 10:46:19 -0.04,-136.89 0.63,-139.80 332.48 80
10 08/29/2024 10:24:53 -0.05,-136.87 -0.38,-135.27 182.41 80
11 08/30/2024 22:46:48 0.05,-136.83 -0.81,-140.56 425.23 80
